Hourly Weather Rudno

Today, 11 April, Sunday

Time Temperature Precipitation Wind Pressure Humidity
00:00 +8°C° 0 mm 3 mps 750 mmHg 73%
01:00 +8°C° 0 mm 3 mps 751 mmHg 75%
02:00 +8°C° 0 mm 3 mps 751 mmHg 76%
03:00 +7°C° 0 mm 3 mps 751 mmHg 76%
04:00 +7°C° 0 mm 3 mps 751 mmHg 77%
05:00 +7°C° 0 mm 4 mps 751 mmHg 75%
06:00 +8°C° 0 mm 4 mps 751 mmHg 72%
07:00 +8°C° 0 mm 5 mps 751 mmHg 70%
08:00 +10°C° 0 mm 5 mps 751 mmHg 63%
09:00 +13°C° 0 mm 6 mps 751 mmHg 56%
10:00 +15°C° 0 mm 7 mps 751 mmHg 49%
11:00 +16°C° 0 mm 7 mps 751 mmHg 46%
12:00 +17°C° 0 mm 7 mps 751 mmHg 44%
13:00 +18°C° 0 mm 8 mps 751 mmHg 41%
14:00 +17°C° 0 mm 7 mps 750 mmHg 43%
15:00 +17°C° 0 mm 6 mps 750 mmHg 45%
16:00 +17°C° 0 mm 6 mps 750 mmHg 47%
17:00 +15°C° 0 mm 5 mps 750 mmHg 51%
18:00 +14°C° 0 mm 5 mps 751 mmHg 56%
19:00 +13°C° 0 mm 4 mps 751 mmHg 60%
20:00 +12°C° 0 mm 4 mps 751 mmHg 61%
21:00 +12°C° 0 mm 5 mps 751 mmHg 63%
22:00 +10°C° 0 mm 5 mps 751 mmHg 64%
23:00 +11°C° 0 mm 4 mps 751 mmHg 66%

Tomorrow, 12 April, Monday

Time Temperature Precipitation Wind Pressure Humidity
00:00 +10°C° 0 mm 4 mps 751 mmHg 68%
01:00 +10°C° 0 mm 4 mps 751 mmHg 70%
02:00 +10°C° 0 mm 4 mps 750 mmHg 71%
03:00 +9°C° 0 mm 5 mps 750 mmHg 73%
04:00 +9°C° 0 mm 5 mps 750 mmHg 74%
05:00 +9°C° 0 mm 5 mps 750 mmHg 75%
06:00 +9°C° 0 mm 5 mps 750 mmHg 77%
07:00 +10°C° 0 mm 5 mps 750 mmHg 78%
08:00 +12°C° 0 mm 5 mps 750 mmHg 73%
09:00 +13°C° 0 mm 6 mps 750 mmHg 68%
10:00 +14°C° 0 mm 6 mps 749 mmHg 63%
11:00 +14°C° 0 mm 6 mps 749 mmHg 63%
12:00 +14°C° 0 mm 5 mps 749 mmHg 63%
13:00 +14°C° 0 mm 5 mps 749 mmHg 63%
14:00 +13°C° 0.1 mm 4 mps 749 mmHg 66%
15:00 +13°C° 0.1 mm 4 mps 749 mmHg 69%
16:00 +12°C° 0.1 mm 4 mps 749 mmHg 72%
17:00 +12°C° 0 mm 3 mps 749 mmHg 75%
18:00 +12°C° 0 mm 2 mps 749 mmHg 79%
19:00 +12°C° 0 mm 2 mps 750 mmHg 82%
20:00 +10°C° 0 mm 2 mps 750 mmHg 84%
21:00 +10°C° 0 mm 2 mps 750 mmHg 85%
22:00 +9°C° 0 mm 3 mps 750 mmHg 87%
23:00 +9°C° 0 mm 3 mps 750 mmHg 87%

Day after tomorrow, 13 April, Tuesday

Time Temperature Precipitation Wind Pressure Humidity
00:00 +8°C° 0 mm 3 mps 750 mmHg 88%
01:00 +7°C° 0 mm 3 mps 751 mmHg 89%
02:00 +6°C° 0 mm 4 mps 751 mmHg 89%
03:00 +5°C° 0 mm 4 mps 751 mmHg 89%
04:00 +5°C° 0 mm 4 mps 751 mmHg 89%
05:00 +5°C° 0.3 mm 5 mps 751 mmHg 89%
06:00 +3°C° 0.3 mm 5 mps 751 mmHg 89%
07:00 +3°C° 0.3 mm 5 mps 751 mmHg 89%
08:00 +3°C° 1 mm 5 mps 751 mmHg 90%
09:00 +2°C° 1 mm 5 mps 752 mmHg 91%
10:00 +2°C° 1 mm 5 mps 752 mmHg 93%
11:00 +2°C° 0.8 mm 5 mps 752 mmHg 93%
12:00 +2°C° 0.8 mm 5 mps 752 mmHg 94%
13:00 +2°C° 0.8 mm 6 mps 752 mmHg 94%
14:00 +1°C° 1.3 mm 6 mps 752 mmHg 95%
15:00 +1°C° 1.3 mm 6 mps 752 mmHg 96%
16:00 +1°C° 1.3 mm 6 mps 751 mmHg 96%
17:00 -1°C° 1.5 mm 6 mps 751 mmHg 96%
18:00 -1°C° 1.5 mm 6 mps 751 mmHg 97%
19:00 -1°C° 1.5 mm 6 mps 751 mmHg 97%
20:00 -1°C° 1.8 mm 6 mps 751 mmHg 97%
21:00 -2°C° 1.8 mm 6 mps 751 mmHg 98%
22:00 -2°C° 1.8 mm 6 mps 751 mmHg 98%
23:00 -2°C° 1.7 mm 6 mps 750 mmHg 98%

14 April, Wednesday

Time Temperature Precipitation Wind Pressure Humidity
00:00 -2°C° 1.7 mm 7 mps 750 mmHg 98%
01:00 -2°C° 1.7 mm 7 mps 750 mmHg 98%
02:00 -2°C° 0.6 mm 7 mps 750 mmHg 98%
03:00 -2°C° 0.6 mm 7 mps 749 mmHg 98%
04:00 -2°C° 0.6 mm 7 mps 749 mmHg 97%
05:00 -2°C° 0.4 mm 7 mps 749 mmHg 98%
06:00 -2°C° 0.4 mm 7 mps 749 mmHg 98%
07:00 -2°C° 0.4 mm 7 mps 749 mmHg 98%
08:00 -2°C° 0.3 mm 6 mps 749 mmHg 98%
09:00 -2°C° 0.3 mm 6 mps 749 mmHg 98%
10:00 -2°C° 0.3 mm 6 mps 749 mmHg 98%
11:00 -2°C° 0.5 mm 6 mps 749 mmHg 98%
12:00 -2°C° 0.5 mm 6 mps 749 mmHg 98%
13:00 -1°C° 0.5 mm 6 mps 748 mmHg 98%
14:00 -1°C° 0.2 mm 6 mps 748 mmHg 97%
15:00 -1°C° 0.2 mm 6 mps 748 mmHg 97%
16:00 -1°C° 0.2 mm 6 mps 748 mmHg 97%
17:00 -1°C° 0.1 mm 6 mps 748 mmHg 97%
18:00 -1°C° 0.1 mm 6 mps 748 mmHg 97%
19:00 -2°C° 0.1 mm 6 mps 748 mmHg 97%
20:00 -1°C° 0.3 mm 5 mps 748 mmHg 98%
21:00 -1°C° 0.3 mm 5 mps 748 mmHg 98%
22:00 -1°C° 0.3 mm 5 mps 747 mmHg 98%
23:00 -1°C° 0.2 mm 5 mps 747 mmHg 98%

15 April, Thursday

Time Temperature Precipitation Wind Pressure Humidity
00:00 -1°C° 0.2 mm 4 mps 747 mmHg 98%
01:00 -1°C° 0.2 mm 4 mps 747 mmHg 98%
02:00 0°C° 0.5 mm 4 mps 747 mmHg 98%
03:00 0°C° 0.5 mm 4 mps 747 mmHg 99%
04:00 +1°C° 0.5 mm 3 mps 747 mmHg 99%
05:00 +1°C° 0.6 mm 3 mps 747 mmHg 99%
06:00 +2°C° 0.6 mm 3 mps 747 mmHg 99%
07:00 +2°C° 0.6 mm 3 mps 747 mmHg 99%
08:00 +3°C° 0.3 mm 3 mps 747 mmHg 99%
09:00 +3°C° 0.3 mm 3 mps 748 mmHg 99%
10:00 +5°C° 0.3 mm 2 mps 748 mmHg 98%
11:00 +5°C° 0 mm 2 mps 748 mmHg 97%
12:00 +6°C° 0 mm 2 mps 749 mmHg 95%
13:00 +7°C° 0 mm 2 mps 749 mmHg 94%
14:00 +7°C° 0.1 mm 3 mps 749 mmHg 93%
15:00 +7°C° 0.1 mm 4 mps 749 mmHg 93%
16:00 +7°C° 0.1 mm 5 mps 749 mmHg 92%
17:00 +6°C° 0 mm 5 mps 749 mmHg 93%
18:00 +6°C° 0 mm 5 mps 750 mmHg 93%
19:00 +4°C° 0 mm 6 mps 750 mmHg 93%
20:00 +3°C° 0 mm 5 mps 750 mmHg 93%
21:00 +3°C° 0 mm 5 mps 751 mmHg 93%
22:00 +2°C° 0 mm 5 mps 751 mmHg 94%
23:00 +2°C° 0 mm 5 mps 751 mmHg 93%

16 April, Friday

Time Temperature Precipitation Wind Pressure Humidity
00:00 +2°C° 0 mm 5 mps 751 mmHg 92%
01:00 +3°C° 0 mm 4 mps 751 mmHg 92%
02:00 +3°C° 0.1 mm 4 mps 751 mmHg 93%
03:00 +1°C° 0.1 mm 4 mps 751 mmHg 93%
04:00 +1°C° 0.1 mm 4 mps 751 mmHg 94%
05:00 +1°C° 0.1 mm 4 mps 752 mmHg 94%
06:00 +3°C° 0.1 mm 4 mps 752 mmHg 94%
07:00 +3°C° 0.1 mm 4 mps 752 mmHg 93%
08:00 +3°C° 0.1 mm 4 mps 753 mmHg 92%
09:00 +2°C° 0.1 mm 5 mps 753 mmHg 91%
10:00 +2°C° 0.1 mm 5 mps 754 mmHg 90%
11:00 +3°C° 0 mm 5 mps 754 mmHg 88%
12:00 +3°C° 0 mm 5 mps 754 mmHg 86%
13:00 +5°C° 0 mm 5 mps 755 mmHg 83%
14:00 +5°C° 0 mm 4 mps 755 mmHg 83%
15:00 +5°C° 0 mm 3 mps 755 mmHg 82%
16:00 +5°C° 0 mm 3 mps 755 mmHg 82%
17:00 +5°C° 0 mm 3 mps 756 mmHg 81%
18:00 +5°C° 0 mm 3 mps 756 mmHg 80%
19:00 +5°C° 0 mm 3 mps 757 mmHg 80%
20:00 +6°C° 0 mm 2 mps 757 mmHg 80%
21:00 +5°C° 0 mm 2 mps 757 mmHg 80%
22:00 +5°C° 0 mm 2 mps 758 mmHg 81%
23:00 +4°C° 0 mm 2 mps 758 mmHg 83%
Show more